Probability
1 2 3 6 9 11 13 17 20 18 19 22 25 27 27 27 26 21 19 19 18 19 20 17 13 10 9 7 4 1 0 0 0 0 0 0 0 0 0 0 0 0 0
1 1 2 3 5 7 9 13 16 16 16 18 20 21 21 21 19 17 16 14 14 14 14 12 10 8 8 6 4 1 0 0 0 0 0 0 0 0 0 0 0 0 0
0 0 0 0 1 2 4 6 9 11 12 13 14 15 15 14 12 11 11 9 9 9 9 8 7 6 7 6 3 1 0 0 0 0 0 0 0 0 0 0 0 0 0
0 0 0 1 1 1 1 2 3 6 8 10 11 12 13 11 8 6 6 6 6 7 7 7 6 5 5 3 1 0 0 0 0 0 0 0 0 0 0 0 0 0 0
0 0 0 1 2 2 2 1 1 3 6 7 8 10 10 9 6 3 3 3 4 4 5 5 4 3 2 1 0 0 0 0 0 0 0 0 0 0 0 0 0 0 0
0 0 0 1 1 2 3 2 1 3 4 4 4 5 5 6 4 2 0 1 1 1 2 2 1 1 1 0 0 0 0 0 0 0 0 0 0 0 0 0 0 0 0
0 0 0 0 0 1 2 2 2 2 3 2 1 1 1 3 2 1 0 0 0 0 0 0 0 0 0 0 0 0 0 0 0 0 0 0 0 0 0 0 0 0 0
0 0 0 0 0 0 1 2 2 2 1 1 0 0 0 1 1 0 0 0 0 0 0 0 0 0 0 0 0 0 0 0 0 0 0 0 0 0 0 0 0 0 0
0 0 0 0 0 0 0 1 2 1 0 0 0 0 0 0 0 0 0 0 0 0 0 0 0 0 0 0 0 0 0 0 0 0 0 0 0 0 0 0 0 0 0
0 0 0 0 0 0 0 0 0 0 0 0 0 0 0 0 0 0 0 0 0 0 0 0 0 0 0 0 0 0 0 0 0 0 0 0 0 0 0 0 0 0 0
0 0 0 0 0 0 0 0 0 0 0 0 0 0 0 0 0 0 0 0 0 0 0 0 0 0 0 0 0 0 0 0 0 0 0 0 0 0 0 0 0 0 0
0 0 0 0 0 0 0 0 0 0 0 0 0 0 0 0 0 0 0 0 0 0 0 0 0 0 0 0 0 0 0 0 0 0 0 0 0 0 0 0 0 0 0
0 0 0 0 0 0 0 0 0 0 0 0 0 0 0 0 0 0 0 0 0 0 0 0 0 0 0 0 0 0 0 0 0 0 0 0 0 0 0 0 0 0 0
0 0 0 0 0 0 0 0 0 0 0 0 0 0 0 0 0 0 0 0 0 0 0 0 0 0 0 0 0 0 0 0 0 0 0 0 0 0 0 0 0 0 0
0 0 0 0 0 0 0 0 0 0 0 0 0 0 0 0 0 0 0 0 0 0 0 0 0 0 0 0 0 0 0 0 0 0 0 0 0 0 0 0 0 0 0
0 0 0 0 0 0 0 0 0 0 0 0 0 0 0 0 0 0 0 0 0 0 0 0 0 0 0 0 0 0 0 0 0 0 0 0 0 0 0 0 0 0 0
0 0 0 0 0 0 0 0 0 0 0 0 0 0 0 0 0 0 0 0 0 0 0 0 0 0 0 0 0 0 0 0 0 0 0 0 0 0 0 0 0 0 0
0 0 0 0 0 0 0 0 0 0 0 0 0 0 0 0 0 0 0 0 0 0 0 0 0 0 0 0 0 0 0 0 0 0 0 0 0 0 0 0 0 0 0
0 0 0 0 0 0 0 0 0 0 0 0 0 0 0 0 0 0 0 0 0 0 0 0 0 0 0 0 0 0 0 0 0 0 0 0 0 0 0 0 0 0 0
0 0 0 0 0 0 0 0 0 0 0 0 0 0 0 0 0 0 0 0 0 0 0 0 0 0 0 0 0 0 0 0 0 0 0 0 0 0 0 0 0 0 0
0 0 0 0 0 0 0 0 0 0 0 0 0 0 0 0 0 0 0 0 0 0 0 0 0 0 0 0 0 0 0 0 0 0 0 0 0 0 0 0 0 0 0
0 0 0 0 0 0 0 0 0 0 0 0 0 0 0 0 0 0 0 0 0 0 0 0 0 0 0 0 0 0 0 0 0 0 0 0 0 0 0 0 0 0 0
0 0 0 0 0 0 0 0 0 0 0 0 0 0 0 0 0 0 0 0 0 0 0 0 0 0 0 0 0 0 0 0 0 0 0 0 0 0 0 0 0 0 0
0 0 0 0 0 0 0 0 0 0 0 0 0 0 0 0 0 0 0 0 0 0 0 0 0 0 0 0 0 0 0 0 0 0 0 0 0 0 0 0 0 0 0
0 0 0 0 0 0 0 0 0 0 0 0 0 0 0 0 0 0 0 0 0 0 0 0 0 0 0 0 0 0 0 0 0 0 0 0 0 0 0 0 0 0 0
0 0 0 0 0 0 0 0 0 0 0 0 0 0 0 0 0 0 0 0 0 0 0 0 0 0 0 0 0 0 0 0 0 0 0 0 0 0 0 0 0 0 0
Wind_Speed
5 7 8 8 7 6 6 5 4 3 1 1 2 2 2 2 2 1 1 2 3 4 5 5 5 5 5 6 7 5 6 5 5 5 4 4 6 6 4 5 5 6 7
6 8 9 9 9 8 7 6 5 3 2 1 1 1 2 1 1 1 1 1 0 2 4 5 4 5 5 6 7 7 5 4 5 4 4 3 2 4 5 4 5 6 6
5 7 8 9 9 9 9 7 6 5 3 2 1 1 2 2 1 1 1 2 2 1 1 2 2 3 4 5 7 8 8 6 5 4 4 5 5 3 3 5 5 5 5
5 6 7 8 9 8 7 7 7 6 5 3 1 2 2 2 1 1 2 3 3 2 2 0 1 2 3 4 6 7 5 7 6 4 2 2 5 5 4 3 4 5 5
5 6 7 7 8 8 8 7 7 7 7 5 2 2 2 2 2 3 3 3 3 3 3 2 1 1 1 2 3 4 5 5 5 4 4 3 3 3 5 5 4 3 4
4 5 6 7 7 8 7 7 7 8 8 7 5 4 4 4 4 4 3 2 2 2 3 3 3 2 2 2 2 3 4 4 4 4 4 4 4 4 4 5 5 4 3
4 5 7 8 8 9 9 8 8 8 8 8 7 6 5 4 5 4 3 3 2 3 4 4 3 3 3 3 3 4 4 4 5 4 3 3 3 4 4 7 6 4 3
4 5 5 6 7 8 8 8 8 8 8 8 7 7 6 4 4 5 4 4 3 3 4 4 4 5 5 4 5 4 5 5 5 5 5 4 3 4 6 6 8 6 3
4 4 5 6 7 7 7 7 7 8 8 8 7 8 8 7 6 6 6 5 4 4 6 5 6 6 6 6 6 6 6 6 6 6 6 5 4 5 5 5 6 7 6
4 4 4 5 6 6 6 7 8 8 8 7 7 7 8 7 7 7 7 7 6 6 7 7 7 7 8 8 8 7 7 9 7 6 8 7 6 6 6 5 4 4 5
4 3 3 4 5 6 7 7 8 8 8 8 8 8 8 7 7 8 7 7 7 8 8 8 8 9 8 7 8 8 8 10 9 8 9 9 8 7 6 6 5 5 5
4 3 4 4 5 6 7 7 7 8 7 7 7 8 8 8 8 8 8 7 8 8 8 9 9 9 9 9 9 10 9 10 10 9 9 9 7 8 7 6 7 6 5
5 4 4 4 5 5 6 6 7 7 7 7 7 8 8 8 8 8 8 8 8 8 9 9 10 9 9 9 9 10 10 10 9 9 9 8 9 9 7 7 7 6 7
6 5 4 4 4 5 5 6 6 6 6 7 8 8 8 8 8 8 8 8 8 9 9 9 9 9 9 9 9 10 10 10 10 9 9 8 8 8 8 8 8 8 8
7 6 5 4 4 4 5 5 6 6 6 7 8 7 7 7 8 9 8 8 9 9 8 9 9 8 8 8 9 9 10 10 11 10 9 9 11 10 7 7 7 8 6
7 6 5 5 4 4 4 5 5 5 5 7 7 7 7 8 8 8 8 9 9 8 9 9 9 9 7 11 13 10 9 9 10 9 9 10 11 13 13 12 10 8 7
8 7 6 5 4 3 4 4 4 4 5 6 6 6 7 7 7 8 9 8 8 8 9 8 9 8 9 12 13 13 9 9 8 8 8 7 8 9 9 11 12 10 8
9 7 6 5 4 3 3 4 4 5 5 5 5 5 6 7 7 8 8 7 6 7 7 7 7 8 8 11 12 13 10 9 8 7 7 7 7 7 7 8 8 6 5
8 7 6 5 5 4 4 5 5 5 5 5 5 5 6 6 6 7 7 5 6 7 6 6 7 7 7 10 11 10 7 8 8 7 7 7 6 7 8 8 7 6 4
7 7 6 6 5 4 4 5 5 5 4 4 5 5 5 6 6 6 6 5 6 6 7 7 7 7 6 8 10 9 6 6 6 6 6 8 7 7 7 6 5 4 3
8 8 7 6 5 5 5 5 5 4 4 5 5 5 5 6 6 5 5 6 6 7 7 7 7 7 7 8 9 8 5 5 5 4 4 4 7 7 7 5 3 1 1
9 8 7 6 5 5 6 5 4 3 4 6 6 6 5 5 5 6 6 6 6 7 6 6 6 6 6 7 7 9 7 5 4 3 2 2 6 7 6 4 4 4 3
8 7 8 7 5 4 5 5 3 4 6 6 6 5 6 5 5 5 6 5 5 5 4 4 5 4 4 5 8 8 7 6 3 2 3 4 6 6 5 7 7 4 3
8 7 8 7 5 4 5 4 4 5 6 6 5 5 6 5 5 4 4 4 4 4 4 4 3 3 3 3 3 3 4 5 4 3 5 7 8 6 5 5 5 4 3
7 7 7 6 5 4 4 4 5 6 6 6 5 5 5 5 5 5 4 3 2 2 3 3 2 3 2 2 2 2 2 2 2 3 3 4 4 4 4 3 3 3 3
7 7 6 6 5 5 4 4 4 6 7 5 4 4 4 4 4 4 5 9 6 5 5 5 4 2 1 1 3 4 4 4 5 4 3 3 3 3 3 3 3 3 3
Wind_Direction
22 22 21 19 20 25 26 23 20 11 56 144 175 185 196 194 194 194 171 201 202 204 204 208 203 193 194 190 174 162 152 146 136 120 103 72 62 63 61 69 74 72 70
23 20 20 20 17 17 13 15 14 2 353 228 201 187 168 145 145 100 96 89 161 228 223 205 201 195 193 186 175 162 156 162 165 144 133 133 103 64 56 65 76 76 73
34 21 16 15 14 15 8 2 357 356 353 338 126 131 118 99 90 72 58 43 30 8 301 234 208 203 197 193 181 175 170 173 182 171 157 159 164 128 73 62 69 76 75
39 23 16 12 8 4 2 5 5 4 4 2 82 149 155 147 121 103 85 57 38 25 19 37 203 199 195 190 183 178 177 169 178 174 174 137 138 145 135 92 72 76 74
41 24 14 7 6 2 3 4 8 14 13 17 32 97 101 111 104 93 80 66 47 38 36 58 83 149 164 170 173 171 174 176 176 166 152 123 111 115 137 142 133 90 65
44 24 12 10 8 8 8 11 16 21 20 27 38 63 86 99 102 88 79 72 61 52 45 58 69 76 84 110 139 150 160 166 163 157 151 151 152 153 138 136 139 122 88
48 26 15 10 8 8 13 16 21 24 23 32 41 48 60 78 86 87 80 71 60 51 43 49 55 63 65 76 91 111 116 127 136 137 133 133 134 137 130 128 131 119 106
60 39 22 12 9 11 16 20 25 28 29 36 41 45 50 62 69 70 71 63 58 51 50 60 64 66 67 75 81 88 94 100 106 104 110 105 104 119 128 135 138 127 108
78 53 32 20 15 15 18 24 32 35 34 36 46 50 50 55 63 65 64 62 54 58 56 60 66 66 66 69 78 77 80 87 85 92 98 98 96 97 103 117 132 134 134
91 67 42 27 22 20 21 30 37 42 41 40 48 56 53 53 60 66 64 61 54 57 65 64 68 68 67 69 76 78 75 79 73 78 82 81 87 91 92 99 93 101 123
115 86 58 37 30 32 33 34 39 44 43 43 50 55 53 51 58 63 61 61 61 60 64 68 69 68 67 69 76 74 76 79 75 74 80 79 81 88 87 88 88 88 101
118 99 75 54 43 40 40 40 40 45 44 47 53 55 53 53 58 60 59 62 64 61 64 68 68 68 67 66 73 77 73 77 77 76 79 79 84 81 82 86 86 86 86
125 108 85 67 56 49 46 44 42 44 44 50 55 57 56 56 58 58 59 61 65 64 63 67 67 67 69 71 72 76 74 72 72 73 79 82 87 84 84 86 89 88 88
133 120 96 74 65 57 52 50 46 45 50 54 57 57 56 60 61 59 58 59 64 66 65 65 66 65 67 71 74 76 76 73 69 68 71 75 85 92 93 91 91 95 93
139 130 115 94 76 66 59 57 52 50 55 62 61 58 58 62 63 61 59 58 60 64 66 68 65 62 64 69 76 76 77 76 71 65 64 72 83 87 90 101 104 103 100
146 135 124 113 100 87 78 69 60 54 61 66 68 67 65 65 65 66 63 61 58 58 63 65 67 63 66 72 75 81 76 74 74 70 64 67 70 74 78 87 96 108 115
145 141 136 130 118 101 90 82 70 65 69 70 69 69 70 68 65 70 68 64 60 61 61 61 67 66 69 76 76 76 77 73 69 68 68 69 65 71 79 77 74 71 83
144 141 138 130 114 98 91 85 80 77 75 75 73 73 75 75 73 72 69 65 63 65 63 61 65 67 66 77 80 78 74 71 64 64 71 76 65 69 83 85 76 67 60
140 139 138 130 118 111 109 102 88 85 85 84 83 82 87 86 82 79 75 69 70 66 62 60 63 67 58 71 83 83 77 70 60 56 59 70 70 70 85 85 79 65 41
127 129 126 115 111 109 111 104 96 90 88 90 91 88 91 90 87 85 81 75 78 75 72 63 56 63 60 69 80 84 84 76 65 54 48 54 65 70 80 86 84 69 28
128 127 122 114 114 115 111 104 97 91 91 94 93 89 88 92 94 87 83 87 85 80 74 69 55 53 54 63 72 78 83 89 78 65 48 40 57 71 77 85 83 86 76
126 126 121 114 113 116 112 105 99 97 96 93 90 86 88 94 97 95 87 86 90 84 75 72 59 46 41 49 66 73 81 92 89 75 49 42 64 72 70 68 71 86 91
125 123 123 115 109 111 115 115 112 104 100 92 87 85 83 81 90 99 99 88 84 89 83 79 70 50 37 41 55 65 71 81 86 78 68 70 73 71 62 56 63 68 67
124 122 121 118 112 108 109 119 120 112 106 99 90 88 91 85 74 74 87 100 102 101 100 97 87 67 44 33 32 42 54 62 69 63 60 64 65 62 56 49 46 46 51
123 124 125 124 119 114 107 111 118 113 104 99 95 89 87 93 82 69 56 77 83 138 134 129 121 107 74 358 12 59 55 59 78 82 58 45 40 41 36 38 40 38 43
123 121 121 121 120 119 113 113 122 121 116 107 102 100 98 95 96 96 73 47 58 85 109 128 129 89 109 79 67 63 73 87 103 84 67 54 48 45 35 29 27 31 33